This is the latest recevied weather packets stored in our database for station/object N3WXO-1. If no packets are shown the sender has not sent any weather packets the latest 10 day(s).
| Time | Temp. | Humidity | Pressure | Rain* | Wind** | Luminosity | Snow |
|---|---|---|---|---|---|---|---|
| 1777321231 | 23.89° C | 37% | 1022.7 hPa | 0 mm | - | 478 W/m² | - |
| 1777320927 | 23.89° C | 38% | 1022.7 hPa | 0 mm | - | 492 W/m² | - |
| 1777320623 | 23.33° C | 38% | 1022.7 hPa | 0 mm | - | 455 W/m² | - |
| 1777320322 | 23.33° C | 37% | 1022.6 hPa | 0 mm | - | 599 W/m² | - |
| 1777320018 | 23.33° C | 40% | 1022.7 hPa | 0 mm | - | 635 W/m² | - |
| 1777319734 | 23.33° C | 39% | 1022.7 hPa | 0 mm | - | 640 W/m² | - |
| 1777319431 | 23.89° C | 38% | 1023 hPa | 0 mm | - | 626 W/m² | - |
| 1777319127 | 23.89° C | 39% | 1022.9 hPa | 0 mm | - | 673 W/m² | - |
| 1777318823 | 23.89° C | 38% | 1022.8 hPa | 0 mm | - | 689 W/m² | - |
| 1777318520 | 23.33° C | 39% | 1022.9 hPa | 0 mm | - | 490 W/m² | - |
| 1777318220 | 23.33° C | 38% | 1022.9 hPa | 0 mm | - | 714 W/m² | - |
| 1777317937 | 22.78° C | 38% | 1022.8 hPa | 0 mm | - | 719 W/m² | - |
| 1777317633 | 22.78° C | 38% | 1022.8 hPa | 0 mm | - | 733 W/m² | - |
| 1777317328 | 22.78° C | 38% | 1022.8 hPa | 0 mm | - | 745 W/m² | - |
| 1777317026 | 23.33° C | 40% | 1022.7 hPa | 0 mm | - | 754 W/m² | - |
| 1777316722 | 23.33° C | 39% | 1022.9 hPa | 0 mm | - | 761 W/m² | - |
| 1777316437 | 23.33° C | 40% | 1022.9 hPa | 0 mm | - | 768 W/m² | - |
| 1777316118 | 23.33° C | 37% | 1022.9 hPa | 0 mm | - | 779 W/m² | - |
| 1777315835 | 23.33° C | 39% | 1022.7 hPa | 0 mm | - | 786 W/m² | - |
| 1777315530 | 23.33° C | 39% | 1022.7 hPa | 0 mm | - | 793 W/m² | - |
| 1777315226 | 23.33° C | 39% | 1022.9 hPa | 0 mm | - | 802 W/m² | - |
| 1777314923 | 23.33° C | 38% | 1022.8 hPa | 0 mm | - | 816 W/m² | - |
| 1777314619 | 23.33° C | 38% | 1022.8 hPa | 0 mm | - | 819 W/m² | - |
| 1777314336 | 22.78° C | 40% | 1022.8 hPa | 0 mm | - | 821 W/m² | - |
| 1777314032 | 23.33° C | 39% | 1022.7 hPa | 0 mm | - | 831 W/m² | - |
* Rain latest hour (hover to see other rain measurements)
** Current wind speed in m/s (hover to see current wind gust speed)